Time,TemperatureF,DewpointF,PressureIn,WindDirection,WindDirectionDegrees,WindSpeedMPH,WindSpeedGustMPH,Humidity,HourlyPrecipIn,Conditions,Clouds,dailyrainin,SoftwareType,DateUTC
2013-03-02 00:00:00,30.0,29.0,30.11,NW,315,0.0,5.0,95,0.00,,,0.00,Rainwise IP-100,2013-03-02 06:00:00,
2013-03-02 00:05:00,30.0,29.0,30.11,NW,315,1.0,6.0,95,0.00,,,0.00,Rainwise IP-100,2013-03-02 06:05:00,
2013-03-02 00:10:00,30.0,29.0,30.11,NW,315,0.0,5.0,95,0.00,,,0.00,Rainwise IP-100,2013-03-02 06:10:00,
2013-03-02 00:15:00,30.0,29.0,30.11,NW,315,2.0,7.0,95,0.00,,,0.00,Rainwise IP-100,2013-03-02 06:15:00,
2013-03-02 00:20:00,30.0,29.0,30.11,NW,315,3.0,6.0,95,0.00,,,0.00,Rainwise IP-100,2013-03-02 06:20:00,
2013-03-02 00:25:00,30.0,29.0,30.10,NW,315,3.0,6.0,95,0.00,,,0.00,Rainwise IP-100,2013-03-02 06:25:00,
2013-03-02 00:30:00,30.0,29.0,30.10,NW,315,1.0,6.0,95,0.00,,,0.00,Rainwise IP-100,2013-03-02 06:30:00,
2013-03-02 00:35:00,30.0,29.0,30.10,NW,315,1.0,6.0,95,0.00,,,0.00,Rainwise IP-100,2013-03-02 06:35:00,
2013-03-02 00:40:00,30.0,29.0,30.10,NW,315,4.0,9.0,95,0.00,,,0.00,Rainwise IP-100,2013-03-02 06:40:00,
2013-03-02 00:45:00,30.0,29.0,30.10,NW,315,3.0,9.0,95,0.00,,,0.00,Rainwise IP-100,2013-03-02 06:45:00,
2013-03-02 00:50:00,30.0,29.0,30.10,NW,315,3.0,7.0,95,0.00,,,0.00,Rainwise IP-100,2013-03-02 06:50:00,
2013-03-02 00:55:00,30.0,29.0,30.11,NW,315,4.0,6.0,95,0.00,,,0.00,Rainwise IP-100,2013-03-02 06:55:00,
2013-03-02 01:00:00,30.0,29.0,30.11,NW,315,6.0,7.0,95,0.00,,,0.00,Rainwise IP-100,2013-03-02 07:00:00,
2013-03-02 01:05:00,30.0,29.0,30.11,NW,315,3.0,8.0,95,0.00,,,0.00,Rainwise IP-100,2013-03-02 07:05:00,
2013-03-02 01:10:00,30.0,29.0,30.11,NW,315,0.0,7.0,95,0.00,,,0.00,Rainwise IP-100,2013-03-02 07:10:00,
2013-03-02 01:15:00,30.0,29.0,30.10,NW,315,2.0,7.0,95,0.00,,,0.00,Rainwise IP-100,2013-03-02 07:15:00,
2013-03-02 01:20:00,30.0,29.0,30.10,NW,315,3.0,6.0,95,0.00,,,0.00,Rainwise IP-100,2013-03-02 07:20:00,
2013-03-02 01:25:00,30.0,29.0,30.11,NW,315,2.0,12.0,95,0.00,,,0.00,Rainwise IP-100,2013-03-02 07:25:00,
2013-03-02 01:30:00,30.0,29.0,30.11,NW,315,5.0,7.0,95,0.00,,,0.00,Rainwise IP-100,2013-03-02 07:30:00,
2013-03-02 01:35:00,30.0,29.0,30.10,NW,315,0.0,8.0,95,0.00,,,0.00,Rainwise IP-100,2013-03-02 07:35:00,
2013-03-02 01:40:00,30.0,29.0,30.10,NW,315,1.0,6.0,95,0.00,,,0.00,Rainwise IP-100,2013-03-02 07:40:00,
2013-03-02 01:41:00,30.0,29.0,30.10,NW,315,5.0,6.0,95,0.00,,,0.00,Rainwise IP-100,2013-03-02 07:41:00,
2013-03-02 01:44:00,30.0,29.0,30.10,NW,315,2.0,5.0,95,0.00,,,0.00,Rainwise IP-100,2013-03-02 07:44:00,
2013-03-02 01:49:00,30.0,29.0,30.10,NW,315,2.0,2.0,95,0.00,,,0.00,Rainwise IP-100,2013-03-02 07:49:00,
2013-03-02 01:54:00,30.0,29.0,30.09,NW,315,1.0,7.0,95,0.00,,,0.00,Rainwise IP-100,2013-03-02 07:54:00,
2013-03-02 01:59:00,30.0,29.0,30.09,NW,315,6.0,10.0,95,0.00,,,0.00,Rainwise IP-100,2013-03-02 07:59:00,
2013-03-02 02:04:00,30.0,29.0,30.09,NW,315,3.0,10.0,95,0.00,,,0.00,Rainwise IP-100,2013-03-02 08:04:00,
2013-03-02 02:09:00,30.0,29.0,30.09,NW,315,7.0,8.0,95,0.00,,,0.00,Rainwise IP-100,2013-03-02 08:09:00,
2013-03-02 02:14:00,30.0,29.0,30.09,NW,315,2.0,10.0,95,0.00,,,0.00,Rainwise IP-100,2013-03-02 08:14:00,
2013-03-02 02:19:00,30.0,29.0,30.09,NW,315,1.0,9.0,95,0.00,,,0.00,Rainwise IP-100,2013-03-02 08:19:00,
2013-03-02 02:24:00,30.0,29.0,30.09,NW,315,5.0,7.0,95,0.00,,,0.00,Rainwise IP-100,2013-03-02 08:24:00,
2013-03-02 02:29:00,30.0,29.0,30.09,NW,315,0.0,6.0,95,0.00,,,0.00,Rainwise IP-100,2013-03-02 08:29:00,
2013-03-02 02:34:00,30.0,29.0,30.09,NW,315,1.0,9.0,95,0.00,,,0.00,Rainwise IP-100,2013-03-02 08:34:00,
2013-03-02 02:39:00,30.0,29.0,30.09,NW,315,4.0,10.0,95,0.00,,,0.00,Rainwise IP-100,2013-03-02 08:39:00,
2013-03-02 02:44:00,30.0,29.0,30.08,NW,315,5.0,8.0,95,0.00,,,0.00,Rainwise IP-100,2013-03-02 08:44:00,
2013-03-02 02:49:00,30.0,29.0,30.08,NW,315,2.0,12.0,95,0.00,,,0.00,Rainwise IP-100,2013-03-02 08:49:00,
2013-03-02 02:54:00,30.0,29.0,30.08,NW,315,3.0,6.0,95,0.00,,,0.00,Rainwise IP-100,2013-03-02 08:54:00,
2013-03-02 02:59:00,30.0,29.0,30.08,NW,315,0.0,8.0,95,0.00,,,0.00,Rainwise IP-100,2013-03-02 08:59:00,
2013-03-02 03:04:00,30.0,29.0,30.08,NW,315,3.0,8.0,95,0.00,,,0.00,Rainwise IP-100,2013-03-02 09:04:00,
2013-03-02 03:09:00,30.0,29.0,30.08,NW,315,0.0,9.0,95,0.00,,,0.00,Rainwise IP-100,2013-03-02 09:09:00,
2013-03-02 03:14:00,30.0,29.0,30.08,NW,315,6.0,6.0,95,0.00,,,0.00,Rainwise IP-100,2013-03-02 09:14:00,
2013-03-02 03:19:00,30.0,29.0,30.08,NW,315,3.0,8.0,95,0.00,,,0.00,Rainwise IP-100,2013-03-02 09:19:00,
2013-03-02 03:24:00,30.0,29.0,30.08,NW,315,2.0,8.0,95,0.00,,,0.00,Rainwise IP-100,2013-03-02 09:24:00,
2013-03-02 03:29:00,30.0,29.0,30.08,NW,315,2.0,10.0,95,0.00,,,0.00,Rainwise IP-100,2013-03-02 09:29:00,
2013-03-02 03:34:00,30.0,29.0,30.08,NW,315,6.0,10.0,95,0.00,,,0.00,Rainwise IP-100,2013-03-02 09:34:00,
2013-03-02 03:39:00,30.0,29.0,30.08,NW,315,1.0,10.0,95,0.00,,,0.00,Rainwise IP-100,2013-03-02 09:39:00,
2013-03-02 03:44:00,30.0,29.0,30.08,NW,315,4.0,9.0,95,0.00,,,0.00,Rainwise IP-100,2013-03-02 09:44:00,
2013-03-02 03:49:00,30.0,29.0,30.08,NW,315,3.0,7.0,95,0.00,,,0.00,Rainwise IP-100,2013-03-02 09:49:00,
2013-03-02 03:54:00,30.0,29.0,30.08,NW,315,3.0,9.0,95,0.00,,,0.00,Rainwise IP-100,2013-03-02 09:54:00,
2013-03-02 04:00:00,30.0,29.0,30.08,NW,315,6.0,8.0,95,0.00,,,0.00,Rainwise IP-100,2013-03-02 10:00:00,
2013-03-02 04:05:00,30.0,29.0,30.08,NW,315,3.0,6.0,95,0.00,,,0.00,Rainwise IP-100,2013-03-02 10:05:00,
2013-03-02 04:10:00,30.0,29.0,30.08,NW,315,6.0,7.0,95,0.00,,,0.00,Rainwise IP-100,2013-03-02 10:10:00,
2013-03-02 04:15:00,30.0,29.0,30.08,NW,315,4.0,10.0,95,0.00,,,0.00,Rainwise IP-100,2013-03-02 10:15:00,
2013-03-02 04:20:00,30.0,29.0,30.08,NW,315,5.0,7.0,95,0.00,,,0.00,Rainwise IP-100,2013-03-02 10:20:00,
2013-03-02 04:25:00,30.0,29.0,30.08,NW,315,3.0,9.0,95,0.00,,,0.00,Rainwise IP-100,2013-03-02 10:25:00,
2013-03-02 04:30:00,30.0,29.0,30.08,NW,315,2.0,8.0,95,0.00,,,0.00,Rainwise IP-100,2013-03-02 10:30:00,
2013-03-02 04:35:00,30.0,29.0,30.09,NW,315,3.0,8.0,95,0.00,,,0.00,Rainwise IP-100,2013-03-02 10:35:00,
2013-03-02 04:40:00,30.0,29.0,30.09,NW,315,3.0,8.0,95,0.00,,,0.00,Rainwise IP-100,2013-03-02 10:40:00,
2013-03-02 04:45:00,30.0,29.0,30.09,NW,315,5.0,13.0,95,0.00,,,0.00,Rainwise IP-100,2013-03-02 10:45:00,
2013-03-02 04:50:00,30.0,29.0,30.09,NW,315,3.0,14.0,95,0.00,,,0.00,Rainwise IP-100,2013-03-02 10:50:00,
2013-03-02 04:55:00,30.0,29.0,30.09,NW,315,7.0,7.0,95,0.00,,,0.00,Rainwise IP-100,2013-03-02 10:55:00,
2013-03-02 05:00:00,30.0,29.0,30.09,NW,315,2.0,10.0,95,0.00,,,0.00,Rainwise IP-100,2013-03-02 11:00:00,
2013-03-02 05:05:00,30.0,29.0,30.09,NW,315,3.0,6.0,95,0.00,,,0.00,Rainwise IP-100,2013-03-02 11:05:00,
2013-03-02 05:10:00,30.0,29.0,30.09,NW,315,5.0,10.0,95,0.00,,,0.00,Rainwise IP-100,2013-03-02 11:10:00,
2013-03-02 05:15:00,30.0,29.0,30.09,NW,315,4.0,7.0,95,0.00,,,0.00,Rainwise IP-100,2013-03-02 11:15:00,
2013-03-02 05:20:00,30.0,29.0,30.09,NW,315,7.0,7.0,95,0.00,,,0.00,Rainwise IP-100,2013-03-02 11:20:00,
2013-03-02 05:25:00,30.0,29.0,30.09,NW,315,5.0,8.0,95,0.00,,,0.00,Rainwise IP-100,2013-03-02 11:25:00,
2013-03-02 05:30:00,30.0,29.0,30.09,NW,315,5.0,8.0,95,0.00,,,0.00,Rainwise IP-100,2013-03-02 11:30:00,
2013-03-02 05:35:00,30.0,29.0,30.10,NW,315,4.0,8.0,95,0.00,,,0.00,Rainwise IP-100,2013-03-02 11:35:00,
2013-03-02 05:40:00,30.0,29.0,30.10,NW,315,2.0,8.0,95,0.00,,,0.00,Rainwise IP-100,2013-03-02 11:40:00,
2013-03-02 05:45:00,29.0,28.0,30.10,NW,315,4.0,10.0,94,0.00,,,0.00,Rainwise IP-100,2013-03-02 11:45:00,
2013-03-02 05:50:00,29.0,28.0,30.10,NW,315,6.0,7.0,94,0.00,,,0.00,Rainwise IP-100,2013-03-02 11:50:00,
2013-03-02 05:55:00,29.0,28.0,30.10,NW,315,4.0,9.0,94,0.00,,,0.00,Rainwise IP-100,2013-03-02 11:55:00,
2013-03-02 06:00:00,30.0,29.0,30.10,NW,315,3.0,10.0,95,0.00,,,0.00,Rainwise IP-100,2013-03-02 12:00:00,
2013-03-02 06:05:00,30.0,29.0,30.10,NW,315,1.0,7.0,95,0.00,,,0.00,Rainwise IP-100,2013-03-02 12:05:00,
2013-03-02 06:10:00,30.0,29.0,30.10,NW,315,4.0,10.0,95,0.00,,,0.00,Rainwise IP-100,2013-03-02 12:10:00,
2013-03-02 06:15:00,30.0,29.0,30.11,NW,315,1.0,6.0,95,0.00,,,0.00,Rainwise IP-100,2013-03-02 12:15:00,
2013-03-02 06:20:00,29.0,28.0,30.11,NW,315,6.0,7.0,94,0.00,,,0.00,Rainwise IP-100,2013-03-02 12:20:00,
2013-03-02 06:25:00,29.0,28.0,30.11,NW,315,4.0,7.0,94,0.00,,,0.00,Rainwise IP-100,2013-03-02 12:25:00,
2013-03-02 06:30:00,29.0,28.0,30.11,NW,315,6.0,7.0,94,0.00,,,0.00,Rainwise IP-100,2013-03-02 12:30:00,
2013-03-02 06:35:00,29.0,28.0,30.11,NW,315,6.0,9.0,94,0.00,,,0.00,Rainwise IP-100,2013-03-02 12:35:00,
2013-03-02 06:40:00,29.0,28.0,30.11,NW,315,5.0,9.0,94,0.00,,,0.00,Rainwise IP-100,2013-03-02 12:40:00,
2013-03-02 06:45:00,29.0,28.0,30.12,NW,315,2.0,10.0,94,0.00,,,0.00,Rainwise IP-100,2013-03-02 12:45:00,
2013-03-02 06:50:00,30.0,29.0,30.12,NW,315,3.0,12.0,95,0.00,,,0.00,Rainwise IP-100,2013-03-02 12:50:00,
2013-03-02 06:55:00,30.0,29.0,30.12,NW,315,4.0,7.0,95,0.00,,,0.00,Rainwise IP-100,2013-03-02 12:55:00,
2013-03-02 07:00:00,29.0,28.0,30.12,NW,315,2.0,7.0,94,0.00,,,0.00,Rainwise IP-100,2013-03-02 13:00:00,
2013-03-02 07:05:00,29.0,28.0,30.12,NW,315,5.0,8.0,94,0.00,,,0.00,Rainwise IP-100,2013-03-02 13:05:00,
2013-03-02 07:10:00,29.0,28.0,30.12,NW,315,2.0,10.0,94,0.00,,,0.00,Rainwise IP-100,2013-03-02 13:10:00,
2013-03-02 07:15:00,29.0,28.0,30.13,NW,315,6.0,6.0,94,0.00,,,0.00,Rainwise IP-100,2013-03-02 13:15:00,
2013-03-02 07:20:00,29.0,28.0,30.13,NW,315,4.0,10.0,94,0.00,,,0.00,Rainwise IP-100,2013-03-02 13:20:00,
2013-03-02 07:25:00,29.0,28.0,30.14,NW,315,2.0,10.0,94,0.00,,,0.00,Rainwise IP-100,2013-03-02 13:25:00,
2013-03-02 07:30:00,29.0,28.0,30.14,NW,315,6.0,11.0,94,0.00,,,0.00,Rainwise IP-100,2013-03-02 13:30:00,
2013-03-02 07:35:00,29.0,28.0,30.13,NW,315,3.0,7.0,94,0.00,,,0.00,Rainwise IP-100,2013-03-02 13:35:00,
2013-03-02 07:40:00,29.0,28.0,30.13,NW,315,5.0,7.0,94,0.00,,,0.00,Rainwise IP-100,2013-03-02 13:40:00,
2013-03-02 07:45:00,29.0,28.0,30.13,NW,315,5.0,7.0,94,0.00,,,0.00,Rainwise IP-100,2013-03-02 13:45:00,
2013-03-02 07:50:00,29.0,28.0,30.13,NW,315,4.0,8.0,94,0.00,,,0.00,Rainwise IP-100,2013-03-02 13:50:00,
2013-03-02 07:55:00,29.0,28.0,30.14,NW,315,4.0,7.0,94,0.00,,,0.00,Rainwise IP-100,2013-03-02 13:55:00,
2013-03-02 08:00:00,29.0,28.0,30.14,NW,315,3.0,6.0,94,0.00,,,0.00,Rainwise IP-100,2013-03-02 14:00:00,
2013-03-02 08:05:00,29.0,28.0,30.15,NW,315,4.0,9.0,94,0.00,,,0.00,Rainwise IP-100,2013-03-02 14:05:00,
2013-03-02 08:10:00,29.0,28.0,30.15,NW,315,2.0,6.0,94,0.00,,,0.00,Rainwise IP-100,2013-03-02 14:10:00,
2013-03-02 08:15:00,29.0,28.0,30.15,NW,315,3.0,7.0,94,0.00,,,0.00,Rainwise IP-100,2013-03-02 14:15:00,
2013-03-02 08:20:00,29.0,28.0,30.15,NW,315,5.0,7.0,94,0.00,,,0.00,Rainwise IP-100,2013-03-02 14:20:00,
2013-03-02 08:25:00,29.0,28.0,30.15,NW,315,3.0,10.0,94,0.00,,,0.00,Rainwise IP-100,2013-03-02 14:25:00,
2013-03-02 08:30:00,29.0,28.0,30.15,NW,315,4.0,9.0,94,0.00,,,0.00,Rainwise IP-100,2013-03-02 14:30:00,
2013-03-02 08:35:00,29.0,28.0,30.16,NW,315,7.0,7.0,94,0.00,,,0.00,Rainwise IP-100,2013-03-02 14:35:00,
2013-03-02 08:40:00,29.0,28.0,30.16,NW,315,4.0,9.0,94,0.00,,,0.00,Rainwise IP-100,2013-03-02 14:40:00,
2013-03-02 08:45:00,29.0,28.0,30.16,NW,315,7.0,7.0,94,0.00,,,0.00,Rainwise IP-100,2013-03-02 14:45:00,
2013-03-02 08:50:00,29.0,28.0,30.16,NW,315,6.0,8.0,94,0.00,,,0.00,Rainwise IP-100,2013-03-02 14:50:00,
2013-03-02 08:55:00,29.0,28.0,30.17,NW,315,4.0,7.0,94,0.00,,,0.00,Rainwise IP-100,2013-03-02 14:55:00,
2013-03-02 09:00:00,29.0,28.0,30.17,NW,315,6.0,10.0,94,0.00,,,0.00,Rainwise IP-100,2013-03-02 15:00:00,
2013-03-02 09:05:00,29.0,28.0,30.17,NW,315,6.0,7.0,94,0.00,,,0.00,Rainwise IP-100,2013-03-02 15:05:00,
2013-03-02 09:10:00,30.0,29.0,30.17,NW,315,4.0,6.0,95,0.00,,,0.00,Rainwise IP-100,2013-03-02 15:10:00,
2013-03-02 09:15:00,29.0,28.0,30.16,NW,315,3.0,11.0,94,0.00,,,0.00,Rainwise IP-100,2013-03-02 15:15:00,
2013-03-02 09:20:00,30.0,29.0,30.16,NW,315,0.0,9.0,95,0.00,,,0.00,Rainwise IP-100,2013-03-02 15:20:00,
2013-03-02 09:25:00,30.0,29.0,30.17,NW,315,3.0,7.0,95,0.00,,,0.00,Rainwise IP-100,2013-03-02 15:25:00,
2013-03-02 09:30:00,30.0,29.0,30.17,NW,315,6.0,7.0,95,0.00,,,0.00,Rainwise IP-100,2013-03-02 15:30:00,
2013-03-02 09:35:00,30.0,29.0,30.17,NW,315,2.0,13.0,94,0.00,,,0.00,Rainwise IP-100,2013-03-02 15:35:00,
2013-03-02 09:40:00,30.0,29.0,30.17,NW,315,7.0,15.0,94,0.00,,,0.00,Rainwise IP-100,2013-03-02 15:40:00,
2013-03-02 09:45:00,30.0,29.0,30.17,NW,315,2.0,9.0,94,0.00,,,0.00,Rainwise IP-100,2013-03-02 15:45:00,
2013-03-02 09:50:00,31.0,29.0,30.17,NW,315,2.0,8.0,94,0.00,,,0.00,Rainwise IP-100,2013-03-02 15:50:00,
2013-03-02 09:55:00,31.0,29.0,30.17,NW,315,2.0,8.0,92,0.00,,,0.00,Rainwise IP-100,2013-03-02 15:55:00,
2013-03-02 10:00:00,31.0,28.0,30.17,SW,225,3.0,7.0,91,0.00,,,0.00,Rainwise IP-100,2013-03-02 16:00:00,
2013-03-02 10:05:00,31.0,28.0,30.18,NW,315,1.0,12.0,89,0.00,,,0.00,Rainwise IP-100,2013-03-02 16:05:00,
2013-03-02 10:10:00,31.0,28.0,30.18,NW,315,3.0,10.0,89,0.00,,,0.00,Rainwise IP-100,2013-03-02 16:10:00,
2013-03-02 10:15:00,31.0,28.0,30.18,NNW,337,6.0,10.0,89,0.00,,,0.00,Rainwise IP-100,2013-03-02 16:15:00,
2013-03-02 10:20:00,31.0,28.0,30.18,North,360,10.0,12.0,86,0.00,,,0.00,Rainwise IP-100,2013-03-02 16:20:00,
2013-03-02 10:25:00,31.0,28.0,30.18,North,360,11.0,17.0,88,0.00,,,0.00,Rainwise IP-100,2013-03-02 16:25:00,
2013-03-02 10:30:00,31.0,28.0,30.18,North,360,3.0,11.0,89,0.00,,,0.00,Rainwise IP-100,2013-03-02 16:30:00,
2013-03-02 10:36:00,31.0,28.0,30.18,North,360,6.0,7.0,87,0.00,,,0.00,Rainwise IP-100,2013-03-02 16:36:00,
2013-03-02 10:40:00,31.0,28.0,30.18,North,360,0.0,9.0,88,0.00,,,0.00,Rainwise IP-100,2013-03-02 16:40:00,
2013-03-02 10:45:00,31.0,28.0,30.18,North,360,8.0,8.0,87,0.00,,,0.00,Rainwise IP-100,2013-03-02 16:45:00,
2013-03-02 10:50:00,31.0,28.0,30.18,North,360,3.0,10.0,88,0.00,,,0.00,Rainwise IP-100,2013-03-02 16:50:00,
2013-03-02 10:55:00,31.0,28.0,30.18,North,360,2.0,8.0,88,0.00,,,0.00,Rainwise IP-100,2013-03-02 16:55:00,
2013-03-02 11:00:00,31.0,28.0,30.18,North,360,6.0,7.0,86,0.00,,,0.00,Rainwise IP-100,2013-03-02 17:00:00,
2013-03-02 11:05:00,32.0,28.0,30.18,North,360,6.0,10.0,85,0.00,,,0.00,Rainwise IP-100,2013-03-02 17:05:00,
2013-03-02 11:10:00,31.0,26.0,30.18,North,360,7.0,12.0,85,0.00,,,0.00,Rainwise IP-100,2013-03-02 17:10:00,
2013-03-02 11:15:00,31.0,26.0,30.18,North,360,8.0,10.0,85,0.00,,,0.00,Rainwise IP-100,2013-03-02 17:15:00,
2013-03-02 11:20:00,31.0,26.0,30.18,North,360,5.0,9.0,85,0.00,,,0.00,Rainwise IP-100,2013-03-02 17:20:00,
2013-03-02 11:25:00,31.0,28.0,30.18,North,360,5.0,11.0,86,0.00,,,0.00,Rainwise IP-100,2013-03-02 17:25:00,
2013-03-02 11:30:00,31.0,26.0,30.18,North,360,3.0,7.0,84,0.00,,,0.00,Rainwise IP-100,2013-03-02 17:30:00,
2013-03-02 11:35:00,31.0,26.0,30.18,North,360,7.0,10.0,85,0.00,,,0.00,Rainwise IP-100,2013-03-02 17:35:00,
2013-03-02 11:40:00,32.0,28.0,30.18,North,360,2.0,10.0,85,0.00,,,0.00,Rainwise IP-100,2013-03-02 17:40:00,
2013-03-02 11:45:00,32.0,28.0,30.18,North,360,2.0,8.0,85,0.00,,,0.00,Rainwise IP-100,2013-03-02 17:45:00,
2013-03-02 11:50:00,32.0,28.0,30.18,North,360,9.0,12.0,84,0.00,,,0.00,Rainwise IP-100,2013-03-02 17:50:00,
2013-03-02 11:55:00,31.0,26.0,30.18,North,360,8.0,12.0,81,0.12,,,0.02,Rainwise IP-100,2013-03-02 17:55:00,
2013-03-02 12:01:00,32.0,28.0,30.18,North,360,7.0,12.0,82,0.12,,,0.03,Rainwise IP-100,2013-03-02 18:01:00,
2013-03-02 12:06:00,32.0,28.0,30.17,North,360,5.0,8.0,82,0.06,,,0.03,Rainwise IP-100,2013-03-02 18:06:00,
2013-03-02 12:11:00,31.0,24.0,30.17,NNW,337,7.0,11.0,78,0.12,,,0.04,Rainwise IP-100,2013-03-02 18:11:00,
2013-03-02 12:16:00,31.0,26.0,30.17,NNW,337,6.0,9.0,80,0.06,,,0.04,Rainwise IP-100,2013-03-02 18:16:00,
2013-03-02 12:21:00,31.0,26.0,30.17,NNW,337,6.0,12.0,83,0.00,,,0.04,Rainwise IP-100,2013-03-02 18:21:00,
2013-03-02 12:26:00,31.0,26.0,30.17,NNW,337,4.0,9.0,82,0.06,,,0.05,Rainwise IP-100,2013-03-02 18:26:00,
2013-03-02 12:31:00,31.0,26.0,30.17,NNW,337,2.0,9.0,82,0.06,,,0.05,Rainwise IP-100,2013-03-02 18:31:00,
2013-03-02 12:36:00,31.0,26.0,30.17,NNW,337,3.0,6.0,81,0.00,,,0.05,Rainwise IP-100,2013-03-02 18:36:00,
2013-03-02 12:41:00,31.0,26.0,30.17,NNW,337,6.0,7.0,81,0.00,,,0.05,Rainwise IP-100,2013-03-02 18:41:00,
2013-03-02 12:46:00,31.0,24.0,30.16,NNW,337,7.0,9.0,79,0.06,,,0.06,Rainwise IP-100,2013-03-02 18:46:00,
2013-03-02 12:51:00,32.0,26.0,30.16,NNW,337,4.0,8.0,80,0.06,,,0.06,Rainwise IP-100,2013-03-02 18:51:00,
2013-03-02 12:56:00,31.0,26.0,30.16,NNW,337,5.0,7.0,80,0.00,,,0.06,Rainwise IP-100,2013-03-02 18:56:00,
2013-03-02 13:01:00,31.0,26.0,30.16,NNW,337,6.0,10.0,82,0.00,,,0.06,Rainwise IP-100,2013-03-02 19:01:00,
2013-03-02 13:06:00,31.0,26.0,30.16,NNW,337,3.0,10.0,82,0.00,,,0.06,Rainwise IP-100,2013-03-02 19:06:00,
2013-03-02 13:11:00,31.0,26.0,30.16,NNW,337,9.0,10.0,81,0.00,,,0.06,Rainwise IP-100,2013-03-02 19:11:00,
2013-03-02 13:16:00,32.0,26.0,30.16,NNW,337,2.0,9.0,80,0.00,,,0.06,Rainwise IP-100,2013-03-02 19:16:00,
2013-03-02 13:21:00,31.0,24.0,30.16,NNW,337,4.0,7.0,77,0.00,,,0.06,Rainwise IP-100,2013-03-02 19:21:00,
2013-03-02 13:26:00,31.0,24.0,30.15,NNW,337,2.0,7.0,79,0.06,,,0.07,Rainwise IP-100,2013-03-02 19:26:00,
2013-03-02 13:31:00,31.0,24.0,30.15,NNW,337,5.0,7.0,77,0.06,,,0.07,Rainwise IP-100,2013-03-02 19:31:00,
2013-03-02 13:36:00,31.0,24.0,30.16,NNW,337,6.0,7.0,77,0.00,,,0.07,Rainwise IP-100,2013-03-02 19:36:00,
2013-03-02 13:41:00,32.0,26.0,30.16,NNW,337,4.0,7.0,80,0.00,,,0.07,Rainwise IP-100,2013-03-02 19:41:00,
2013-03-02 13:46:00,32.0,26.0,30.15,NNW,337,2.0,7.0,80,0.00,,,0.07,Rainwise IP-100,2013-03-02 19:46:00,
2013-03-02 13:51:00,32.0,26.0,30.15,NNW,337,5.0,8.0,77,0.00,,,0.07,Rainwise IP-100,2013-03-02 19:51:00,
2013-03-02 13:56:00,32.0,26.0,30.15,NNW,337,1.0,7.0,79,0.00,,,0.07,Rainwise IP-100,2013-03-02 19:56:00,
2013-03-02 14:01:00,32.0,26.0,30.15,NNW,337,2.0,7.0,78,0.00,,,0.07,Rainwise IP-100,2013-03-02 20:01:00,
2013-03-02 14:06:00,32.0,26.0,30.15,NNW,337,2.0,8.0,77,0.00,,,0.07,Rainwise IP-100,2013-03-02 20:06:00,
2013-03-02 14:11:00,32.0,26.0,30.15,NW,315,4.0,6.0,76,0.00,,,0.07,Rainwise IP-100,2013-03-02 20:11:00,
2013-03-02 14:16:00,32.0,26.0,30.15,NW,315,4.0,6.0,77,0.00,,,0.07,Rainwise IP-100,2013-03-02 20:16:00,
2013-03-02 14:21:00,32.0,26.0,30.15,NW,315,0.0,7.0,76,0.00,,,0.07,Rainwise IP-100,2013-03-02 20:21:00,
2013-03-02 14:26:00,32.0,26.0,30.15,NW,315,2.0,7.0,76,0.00,,,0.07,Rainwise IP-100,2013-03-02 20:26:00,
2013-03-02 14:31:00,32.0,26.0,30.15,NW,315,4.0,7.0,76,0.00,,,0.07,Rainwise IP-100,2013-03-02 20:31:00,
2013-03-02 14:36:00,32.0,26.0,30.15,NW,315,3.0,10.0,75,0.00,,,0.07,Rainwise IP-100,2013-03-02 20:36:00,
2013-03-02 14:41:00,32.0,26.0,30.15,NW,315,5.0,8.0,75,0.00,,,0.07,Rainwise IP-100,2013-03-02 20:41:00,
2013-03-02 14:46:00,32.0,26.0,30.16,NW,315,0.0,10.0,76,0.00,,,0.07,Rainwise IP-100,2013-03-02 20:46:00,
2013-03-02 14:51:00,32.0,26.0,30.16,NW,315,2.0,7.0,78,0.00,,,0.07,Rainwise IP-100,2013-03-02 20:51:00,
2013-03-02 14:56:00,32.0,26.0,30.16,NW,315,3.0,9.0,77,0.00,,,0.07,Rainwise IP-100,2013-03-02 20:56:00,
2013-03-02 15:01:00,32.0,26.0,30.16,NW,315,0.0,7.0,76,0.00,,,0.07,Rainwise IP-100,2013-03-02 21:01:00,
2013-03-02 15:06:00,32.0,26.0,30.16,NW,315,5.0,7.0,78,0.00,,,0.07,Rainwise IP-100,2013-03-02 21:06:00,
2013-03-02 15:11:00,32.0,26.0,30.16,NW,315,5.0,7.0,79,0.00,,,0.07,Rainwise IP-100,2013-03-02 21:11:00,
2013-03-02 15:16:00,32.0,26.0,30.16,NW,315,0.0,6.0,78,0.00,,,0.07,Rainwise IP-100,2013-03-02 21:16:00,
2013-03-02 15:21:00,32.0,26.0,30.16,NW,315,4.0,6.0,78,0.00,,,0.07,Rainwise IP-100,2013-03-02 21:21:00,
2013-03-02 15:26:00,32.0,26.0,30.16,NNW,337,4.0,10.0,77,0.00,,,0.07,Rainwise IP-100,2013-03-02 21:26:00,
2013-03-02 15:31:00,32.0,26.0,30.16,NNW,337,4.0,7.0,76,0.00,,,0.07,Rainwise IP-100,2013-03-02 21:31:00,
2013-03-02 15:36:00,32.0,24.0,30.17,NNW,337,3.0,7.0,74,0.00,,,0.07,Rainwise IP-100,2013-03-02 21:36:00,
2013-03-02 15:41:00,32.0,26.0,30.17,NNW,337,6.0,6.0,76,0.00,,,0.07,Rainwise IP-100,2013-03-02 21:41:00,
2013-03-02 15:46:00,32.0,26.0,30.17,NNW,337,5.0,6.0,75,0.00,,,0.07,Rainwise IP-100,2013-03-02 21:46:00,
2013-03-02 15:51:00,32.0,26.0,30.17,NNW,337,7.0,8.0,79,0.00,,,0.07,Rainwise IP-100,2013-03-02 21:51:00,
2013-03-02 15:56:00,31.0,26.0,30.17,NNW,337,3.0,9.0,81,0.00,,,0.07,Rainwise IP-100,2013-03-02 21:56:00,
2013-03-02 16:01:00,30.0,26.0,30.17,NNW,337,5.0,7.0,84,0.00,,,0.07,Rainwise IP-100,2013-03-02 22:01:00,
2013-03-02 16:06:00,30.0,26.0,30.17,NNW,337,2.0,7.0,84,0.00,,,0.07,Rainwise IP-100,2013-03-02 22:06:00,
2013-03-02 16:11:00,30.0,26.0,30.17,NNW,337,4.0,11.0,85,0.00,,,0.07,Rainwise IP-100,2013-03-02 22:11:00,
2013-03-02 16:16:00,30.0,26.0,30.17,NNW,337,1.0,8.0,85,0.00,,,0.07,Rainwise IP-100,2013-03-02 22:16:00,
2013-03-02 16:21:00,30.0,26.0,30.17,NNW,337,2.0,8.0,85,0.00,,,0.07,Rainwise IP-100,2013-03-02 22:21:00,
2013-03-02 16:26:00,30.0,26.0,30.17,NNW,337,3.0,7.0,85,0.00,,,0.07,Rainwise IP-100,2013-03-02 22:26:00,
2013-03-02 16:31:00,30.0,26.0,30.17,NNW,337,0.0,6.0,85,0.00,,,0.07,Rainwise IP-100,2013-03-02 22:31:00,
2013-03-02 16:36:00,30.0,26.0,30.17,NNW,337,0.0,5.0,85,0.00,,,0.07,Rainwise IP-100,2013-03-02 22:36:00,
2013-03-02 16:41:00,30.0,28.0,30.17,NNW,337,0.0,6.0,86,0.00,,,0.07,Rainwise IP-100,2013-03-02 22:41:00,
2013-03-02 16:46:00,30.0,28.0,30.18,NNW,337,6.0,7.0,86,0.00,,,0.07,Rainwise IP-100,2013-03-02 22:46:00,
2013-03-02 16:51:00,30.0,28.0,30.18,NNW,337,1.0,6.0,88,0.00,,,0.07,Rainwise IP-100,2013-03-02 22:51:00,
2013-03-02 16:56:00,30.0,28.0,30.19,NNW,337,4.0,6.0,89,0.00,,,0.07,Rainwise IP-100,2013-03-02 22:56:00,
2013-03-02 17:01:00,30.0,28.0,30.19,NNW,337,1.0,7.0,90,0.00,,,0.07,Rainwise IP-100,2013-03-02 23:01:00,
2013-03-02 17:06:00,30.0,28.0,30.19,NNW,337,3.0,9.0,91,0.00,,,0.07,Rainwise IP-100,2013-03-02 23:06:00,
2013-03-02 17:11:00,30.0,28.0,30.19,North,360,2.0,6.0,90,0.00,,,0.07,Rainwise IP-100,2013-03-02 23:11:00,
2013-03-02 17:16:00,30.0,28.0,30.19,North,360,0.0,4.0,91,0.00,,,0.07,Rainwise IP-100,2013-03-02 23:16:00,
2013-03-02 17:21:00,29.0,26.0,30.19,North,360,1.0,6.0,90,0.00,,,0.07,Rainwise IP-100,2013-03-02 23:21:00,
2013-03-02 17:26:00,29.0,26.0,30.19,North,360,4.0,6.0,90,0.00,,,0.07,Rainwise IP-100,2013-03-02 23:26:00,
2013-03-02 17:31:00,29.0,26.0,30.19,North,360,0.0,6.0,90,0.00,,,0.07,Rainwise IP-100,2013-03-02 23:31:00,
2013-03-02 17:36:00,29.0,26.0,30.19,North,360,2.0,5.0,90,0.00,,,0.07,Rainwise IP-100,2013-03-02 23:36:00,
2013-03-02 17:41:00,29.0,26.0,30.19,North,360,3.0,5.0,90,0.00,,,0.07,Rainwise IP-100,2013-03-02 23:41:00,
2013-03-02 17:46:00,29.0,26.0,30.19,North,360,0.0,4.0,90,0.00,,,0.07,Rainwise IP-100,2013-03-02 23:46:00,
2013-03-02 17:51:00,29.0,28.0,30.19,North,360,0.0,4.0,91,0.00,,,0.07,Rainwise IP-100,2013-03-02 23:51:00,
2013-03-02 17:56:00,29.0,28.0,30.19,North,360,1.0,2.0,91,0.00,,,0.07,Rainwise IP-100,2013-03-02 23:56:00,
2013-03-02 18:01:00,29.0,26.0,30.19,North,360,1.0,3.0,90,0.00,,,0.07,Rainwise IP-100,2013-03-03 00:01:00,
2013-03-02 18:06:00,29.0,26.0,30.19,North,360,1.0,3.0,90,0.00,,,0.07,Rainwise IP-100,2013-03-03 00:06:00,
2013-03-02 18:11:00,28.0,26.0,30.19,North,360,0.0,4.0,90,0.00,,,0.07,Rainwise IP-100,2013-03-03 00:11:00,
2013-03-02 18:16:00,28.0,26.0,30.19,North,360,1.0,3.0,90,0.00,,,0.07,Rainwise IP-100,2013-03-03 00:16:00,
2013-03-02 18:21:00,28.0,26.0,30.19,North,360,4.0,6.0,90,0.00,,,0.07,Rainwise IP-100,2013-03-03 00:21:00,
2013-03-02 18:26:00,28.0,26.0,30.20,North,360,1.0,4.0,90,0.00,,,0.07,Rainwise IP-100,2013-03-03 00:26:00,
2013-03-02 18:31:00,28.0,24.0,30.20,North,360,1.0,2.0,89,0.00,,,0.07,Rainwise IP-100,2013-03-03 00:31:00,
2013-03-02 18:36:00,28.0,26.0,30.20,North,360,0.0,4.0,90,0.00,,,0.07,Rainwise IP-100,2013-03-03 00:36:00,
2013-03-02 18:41:00,28.0,24.0,30.20,North,360,4.0,4.0,89,0.00,,,0.07,Rainwise IP-100,2013-03-03 00:41:00,
2013-03-02 18:46:00,28.0,24.0,30.19,North,360,1.0,5.0,88,0.00,,,0.07,Rainwise IP-100,2013-03-03 00:46:00,
2013-03-02 18:51:00,28.0,24.0,30.19,North,360,0.0,6.0,89,0.00,,,0.07,Rainwise IP-100,2013-03-03 00:51:00,
2013-03-02 18:56:00,28.0,24.0,30.20,North,360,0.0,6.0,89,0.00,,,0.07,Rainwise IP-100,2013-03-03 00:56:00,
2013-03-02 19:01:00,28.0,24.0,30.20,North,360,0.0,3.0,89,0.00,,,0.07,Rainwise IP-100,2013-03-03 01:01:00,
2013-03-02 19:06:00,28.0,26.0,30.20,North,360,3.0,4.0,90,0.00,,,0.07,Rainwise IP-100,2013-03-03 01:06:00,
2013-03-02 19:11:00,28.0,24.0,30.20,North,360,5.0,6.0,88,0.00,,,0.07,Rainwise IP-100,2013-03-03 01:11:00,
2013-03-02 19:16:00,28.0,24.0,30.20,North,360,2.0,6.0,88,0.00,,,0.07,Rainwise IP-100,2013-03-03 01:16:00,
2013-03-02 19:21:00,28.0,24.0,30.20,North,360,2.0,7.0,88,0.00,,,0.07,Rainwise IP-100,2013-03-03 01:21:00,
2013-03-02 19:26:00,29.0,26.0,30.20,North,360,1.0,9.0,88,0.00,,,0.07,Rainwise IP-100,2013-03-03 01:26:00,
2013-03-02 19:31:00,29.0,26.0,30.20,North,360,4.0,6.0,88,0.00,,,0.07,Rainwise IP-100,2013-03-03 01:31:00,
2013-03-02 19:36:00,29.0,26.0,30.20,North,360,0.0,5.0,88,0.00,,,0.07,Rainwise IP-100,2013-03-03 01:36:00,
2013-03-02 19:41:00,29.0,26.0,30.20,North,360,4.0,5.0,88,0.00,,,0.07,Rainwise IP-100,2013-03-03 01:41:00,
2013-03-02 19:46:00,29.0,26.0,30.20,North,360,1.0,5.0,88,0.00,,,0.07,Rainwise IP-100,2013-03-03 01:46:00,
2013-03-02 19:51:00,29.0,26.0,30.20,North,360,2.0,7.0,86,0.00,,,0.07,Rainwise IP-100,2013-03-03 01:51:00,
2013-03-02 19:56:00,29.0,26.0,30.20,North,360,3.0,5.0,87,0.00,,,0.07,Rainwise IP-100,2013-03-03 01:56:00,
2013-03-02 20:01:00,28.0,24.0,30.20,North,360,0.0,6.0,87,0.00,,,0.07,Rainwise IP-100,2013-03-03 02:01:00,
2013-03-02 20:06:00,28.0,24.0,30.20,North,360,2.0,3.0,88,0.00,,,0.07,Rainwise IP-100,2013-03-03 02:06:00,
2013-03-02 20:11:00,28.0,24.0,30.20,North,360,1.0,6.0,87,0.00,,,0.07,Rainwise IP-100,2013-03-03 02:11:00,
2013-03-02 20:16:00,28.0,24.0,30.21,North,360,1.0,6.0,87,0.00,,,0.07,Rainwise IP-100,2013-03-03 02:16:00,
2013-03-02 20:21:00,28.0,24.0,30.21,North,360,0.0,7.0,88,0.00,,,0.07,Rainwise IP-100,2013-03-03 02:21:00,
2013-03-02 20:26:00,28.0,24.0,30.21,North,360,0.0,7.0,87,0.00,,,0.07,Rainwise IP-100,2013-03-03 02:26:00,
2013-03-02 20:31:00,28.0,24.0,30.21,North,360,2.0,6.0,87,0.00,,,0.07,Rainwise IP-100,2013-03-03 02:31:00,
2013-03-02 20:36:00,28.0,24.0,30.21,North,360,0.0,6.0,87,0.00,,,0.07,Rainwise IP-100,2013-03-03 02:36:00,
2013-03-02 20:41:00,28.0,24.0,30.21,North,360,1.0,5.0,87,0.00,,,0.07,Rainwise IP-100,2013-03-03 02:41:00,
2013-03-02 20:46:00,28.0,24.0,30.21,North,360,3.0,4.0,88,0.00,,,0.07,Rainwise IP-100,2013-03-03 02:46:00,
2013-03-02 20:51:00,28.0,24.0,30.21,North,360,0.0,7.0,87,0.00,,,0.07,Rainwise IP-100,2013-03-03 02:51:00,
2013-03-02 20:56:00,28.0,24.0,30.21,North,360,0.0,3.0,87,0.00,,,0.07,Rainwise IP-100,2013-03-03 02:56:00,
2013-03-02 21:01:00,28.0,24.0,30.21,North,360,0.0,3.0,87,0.00,,,0.07,Rainwise IP-100,2013-03-03 03:01:00,
2013-03-02 21:06:00,28.0,24.0,30.21,North,360,1.0,4.0,88,0.00,,,0.07,Rainwise IP-100,2013-03-03 03:06:00,
2013-03-02 21:11:00,28.0,24.0,30.21,North,360,0.0,3.0,88,0.00,,,0.07,Rainwise IP-100,2013-03-03 03:11:00,
2013-03-02 21:16:00,28.0,24.0,30.21,North,360,0.0,4.0,88,0.00,,,0.07,Rainwise IP-100,2013-03-03 03:16:00,
2013-03-02 21:21:00,28.0,24.0,30.21,North,360,0.0,1.0,89,0.00,,,0.07,Rainwise IP-100,2013-03-03 03:21:00,
2013-03-02 21:26:00,28.0,24.0,30.21,North,360,0.0,2.0,88,0.00,,,0.07,Rainwise IP-100,2013-03-03 03:26:00,
2013-03-02 21:31:00,28.0,24.0,30.21,North,360,0.0,5.0,88,0.00,,,0.07,Rainwise IP-100,2013-03-03 03:31:00,
2013-03-02 21:36:00,28.0,24.0,30.21,North,360,0.0,2.0,87,0.00,,,0.07,Rainwise IP-100,2013-03-03 03:36:00,
2013-03-02 21:41:00,28.0,24.0,30.21,North,360,0.0,3.0,87,0.00,,,0.07,Rainwise IP-100,2013-03-03 03:41:00,
2013-03-02 21:46:00,28.0,24.0,30.21,North,360,1.0,5.0,87,0.00,,,0.07,Rainwise IP-100,2013-03-03 03:46:00,
2013-03-02 21:51:00,28.0,24.0,30.21,North,360,0.0,3.0,87,0.00,,,0.07,Rainwise IP-100,2013-03-03 03:51:00,
2013-03-02 21:56:00,27.0,24.0,30.21,North,360,1.0,2.0,87,0.00,,,0.07,Rainwise IP-100,2013-03-03 03:56:00,
2013-03-02 22:01:00,27.0,24.0,30.21,North,360,0.0,3.0,87,0.00,,,0.07,Rainwise IP-100,2013-03-03 04:01:00,
2013-03-02 22:06:00,27.0,24.0,30.21,North,360,2.0,5.0,87,0.00,,,0.07,Rainwise IP-100,2013-03-03 04:06:00,
2013-03-02 22:11:00,27.0,24.0,30.21,North,360,1.0,6.0,86,0.00,,,0.07,Rainwise IP-100,2013-03-03 04:11:00,
2013-03-02 22:16:00,28.0,24.0,30.21,North,360,1.0,6.0,87,0.00,,,0.07,Rainwise IP-100,2013-03-03 04:16:00,
2013-03-02 22:21:00,28.0,24.0,30.21,North,360,0.0,5.0,88,0.00,,,0.07,Rainwise IP-100,2013-03-03 04:21:00,
2013-03-02 22:26:00,28.0,24.0,30.21,North,360,0.0,4.0,87,0.00,,,0.07,Rainwise IP-100,2013-03-03 04:26:00,
2013-03-02 22:31:00,28.0,24.0,30.21,North,360,1.0,3.0,87,0.00,,,0.07,Rainwise IP-100,2013-03-03 04:31:00,
2013-03-02 22:36:00,28.0,24.0,30.21,North,360,1.0,3.0,88,0.00,,,0.07,Rainwise IP-100,2013-03-03 04:36:00,
2013-03-02 22:41:00,28.0,24.0,30.21,North,360,1.0,6.0,87,0.00,,,0.07,Rainwise IP-100,2013-03-03 04:41:00,
2013-03-02 22:46:00,28.0,24.0,30.20,North,360,0.0,3.0,88,0.00,,,0.07,Rainwise IP-100,2013-03-03 04:46:00,
2013-03-02 22:51:00,28.0,24.0,30.20,North,360,0.0,2.0,88,0.00,,,0.07,Rainwise IP-100,2013-03-03 04:51:00,
2013-03-02 22:56:00,28.0,24.0,30.20,North,360,1.0,3.0,87,0.00,,,0.07,Rainwise IP-100,2013-03-03 04:56:00,
2013-03-02 23:00:00,28.0,24.0,30.20,North,360,0.0,7.0,85,0.00,,,0.07,Rainwise IP-100,2013-03-03 05:00:00,
2013-03-02 23:05:00,28.0,24.0,30.20,North,360,1.0,6.0,84,0.00,,,0.07,Rainwise IP-100,2013-03-03 05:05:00,
2013-03-02 23:10:00,28.0,23.0,30.20,North,360,2.0,4.0,82,0.00,,,0.07,Rainwise IP-100,2013-03-03 05:10:00,
2013-03-02 23:15:00,28.0,23.0,30.21,North,360,6.0,6.0,82,0.00,,,0.07,Rainwise IP-100,2013-03-03 05:15:00,
2013-03-02 23:20:00,28.0,23.0,30.21,North,360,3.0,6.0,80,0.00,,,0.07,Rainwise IP-100,2013-03-03 05:20:00,
2013-03-02 23:25:00,29.0,23.0,30.20,North,360,0.0,4.0,78,0.00,,,0.07,Rainwise IP-100,2013-03-03 05:25:00,
2013-03-02 23:30:00,28.0,23.0,30.20,North,360,1.0,6.0,78,0.00,,,0.07,Rainwise IP-100,2013-03-03 05:30:00,
2013-03-02 23:35:00,29.0,23.0,30.20,North,360,2.0,6.0,77,0.00,,,0.07,Rainwise IP-100,2013-03-03 05:35:00,
2013-03-02 23:40:00,28.0,21.0,30.20,North,360,0.0,5.0,76,0.00,,,0.07,Rainwise IP-100,2013-03-03 05:40:00,
2013-03-02 23:45:00,28.0,21.0,30.20,North,360,1.0,9.0,74,0.00,,,0.07,Rainwise IP-100,2013-03-03 05:45:00,
2013-03-02 23:50:00,28.0,21.0,30.20,North,360,2.0,6.0,72,0.00,,,0.07,Rainwise IP-100,2013-03-03 05:50:00,
2013-03-02 23:55:00,28.0,18.0,30.20,North,360,0.0,7.0,69,0.00,,,0.07,Rainwise IP-100,2013-03-03 05:55:00,